User: anonymous   Login
Location: Lafig�re
(44.4503°N, 4.0357°E)
Time: 15:34:38
(UTC+00:00)
Language:

Terra - Orbit

View from above orbital plane
View from above orbital plane
View from above satellite
View from above satellite

Ground track
Ground track

The orbit data is extracted from the following two-line orbital elements,

1 25994U 99068A   20340.44259465  .00000111  00000-0  34699-4 0  9997
2 25994  98.1983  52.2108 0001128  94.6436 320.7171 14.57121620115211
Epoch (UTC): 05 December 2020 10:37:20
Eccentricity: 0.0001128
inclination: 98.1983°
perigee height: 701 km
apogee height: 703 km
right ascension of ascending node: 52.2108°
argument of perigee: 94.6436°
revolutions per day: 14.57121620
mean anomaly at epoch: 320.7171°
orbit number at epoch: 11521

The dashed part of the orbit path shows where the satellite is in the earth's shadow,  

DLR